Вернуться в каталог

DELTA 1 DEB

LostPO
NORAD 42658·DEBRIS·🇺🇸 United States

Запущен Jun 12, 1975 с Vandenberg Space Force Base

Loading…

Ближайшие Пролёты (ближайшие 24 часа)

TLE

УстаревшееSource: Space-Track

Эпоха: Feb 13, 2019, 16:09 UTC

1 42658U 75052MT  19044.67300950  .00000404  00000-0  17579-2 0  9991
2 42658  99.7969 209.3313 0432984 303.0360  52.9828 12.60810900678824

Отслеживайте DELTA 1 DEB в реальном времени с AllMySat

Download on the App Store